[[{"header":{"parameterUnit":"m.s-1","parameterCategory":1,"la1":30.2991,"la2":30.254,"lo1":-89.0895,"lo2":-89.0444,"dy":0.0017,"dx":0.0017,"nx":28,"ny":28,"refTime":"2024-06-06T03:00:00:Z","depth":0,"parameterNumber":2,"parameterNumberName":"U-component_of_WINDS"},"data":[0,0,0,0,0,0,0,0,0,0,0,0,0,0,0,0,0,0,0,0,0,0,0,0,0,0,0,0,0,0,0,0,0,0,0,0,0,0,0,0,0,0,0,0,0,0,0,0,0,0,0,0,0,0,0,0,0,0,-1.5291,-1.5291,0,-1.5315,-1.5315,-1.5315,-1.5328,-1.5328,-1.5328,-1.5328,-1.5355,-1.5356,-1.5356,0,0,0,0,0,0,0,0,0,0,0,0,0,-1.5258,-1.5259,-1.5291,-1.5291,-1.5291,-1.5315,-1.5315,-1.5315,-1.5328,-1.5328,-1.5328,-1.5328,-1.5355,-1.5355,-1.5356,0,0,0,0,0,0,0,0,0,0,0,0,0,-1.5276,-1.5259,-1.5291,-1.53,-1.5301,-1.5315,-1.5315,-1.5316,-1.5328,-1.5328,-1.5328,-1.5328,-1.5354,-1.5355,-1.5356,-1.5363,0,0,-1.536,-1.536,0,0,0,0,0,0,0,0,-1.5275,-1.5278,-1.5298,-1.53,-1.5301,-1.5318,-1.5314,-1.5332,-1.5328,-1.5318,-1.5328,-1.5328,-1.5343,-1.5345,-1.5349,-1.5364,-1.5365,-1.536,-1.5361,-1.5361,-1.5361,0,0,0,0,0,0,0,-1.5274,-1.5277,-1.53,-1.5299,-1.53,-1.5304,-1.5307,-1.5317,-1.533,-1.5319,-1.532,-1.5322,-1.5344,-1.5348,-1.535,-1.5366,-1.536,-1.5361,-1.5361,-1.5362,-1.5388,-1.5389,0,0,0,0,0,0,-1.5271,-1.5276,-1.53,-1.5301,-1.5288,-1.5305,-1.5308,-1.5313,-1.533,-1.5333,-1.5322,-1.5323,-1.5347,-1.5349,-1.5351,-1.536,-1.5361,-1.5362,-1.5363,-1.5388,-1.5388,-1.5389,0,0,0,0,0,0,-1.527,-1.5273,-1.5299,-1.5289,-1.5292,-1.5305,-1.5311,-1.5313,-1.5318,-1.5332,-1.5335,-1.5324,-1.5347,-1.535,-1.536,-1.5361,-1.5363,-1.5363,-1.5388,-1.5388,-1.5389,-1.5378,0,0,0,0,0,0,-1.5269,-1.5273,-1.5274,-1.5288,-1.5293,-1.5306,-1.5311,-1.5314,-1.5319,-1.532,-1.5335,-1.5338,-1.5347,-1.5358,-1.5361,-1.5363,-1.5364,-1.5388,-1.5388,-1.5389,-1.5379,-1.5378,-1.5378,0,0,0,0,0,-1.5268,-1.5271,-1.5274,-1.5277,-1.5295,-1.5306,-1.5308,-1.5318,-1.5319,-1.5322,-1.5332,-1.5338,-1.5361,-1.5359,-1.5363,-1.5365,-1.5388,-1.5388,-1.5388,-1.5379,-1.5378,-1.5378,0,0,0,0,0,0,-1.5258,-1.5273,-1.5277,-1.5284,-1.5294,-1.5308,-1.5311,-1.5317,-1.5326,-1.5327,-1.5339,-1.5342,-1.5352,-1.536,-1.5357,-1.5373,-1.5375,-1.5376,-1.5367,-1.5366,-1.5366,-1.5364,-1.5365,0,0,0,0,0,-1.5256,-1.5263,-1.5276,-1.5282,-1.5286,-1.5298,-1.5303,-1.5309,-1.532,-1.5324,-1.5334,-1.5345,-1.5355,-1.5361,-1.5371,-1.538,-1.5384,-1.5383,-1.5383,-1.5382,-1.5383,-1.5389,-1.5389,-1.5389,-1.5389,-1.5389,0,0,-1.5253,-1.5262,-1.5266,-1.528,-1.5288,-1.5295,-1.5301,-1.5309,-1.5315,-1.5326,-1.5336,-1.5344,-1.5357,-1.5367,-1.5371,-1.5373,-1.5384,-1.5383,-1.5382,-1.5383,-1.5389,-1.5389,-1.5389,-1.5389,-1.5389,-1.5389,0,0,-1.5251,-1.5259,-1.5264,-1.5272,-1.5284,-1.5292,-1.5293,-1.5307,-1.5312,-1.5323,-1.5331,-1.5339,-1.5356,-1.5365,-1.5371,-1.5374,-1.538,-1.5377,-1.5375,-1.538,-1.538,-1.538,-1.5382,-1.5382,-1.5378,-1.5378,-1.5378,0,-1.5246,-1.5257,-1.5266,-1.5274,-1.528,-1.529,-1.5296,-1.5303,-1.5318,-1.5323,-1.5324,-1.5346,-1.5355,-1.5367,-1.5368,-1.5373,-1.5376,-1.5375,-1.5379,-1.538,-1.538,-1.5381,-1.5382,-1.5377,-1.5377,-1.5377,-1.5377,0,-1.525,-1.5258,-1.5261,-1.5274,-1.5281,-1.5288,-1.5299,-1.5305,-1.5311,-1.532,-1.5331,-1.5342,-1.5355,-1.5359,-1.5365,-1.5372,-1.5373,-1.5377,-1.538,-1.5379,-1.5381,-1.5381,-1.5377,-1.5377,-1.5377,-1.5377,0,0,-1.5242,-1.5261,-1.5262,-1.5268,-1.5282,-1.5289,-1.5297,-1.5308,-1.5313,-1.5324,-1.5331,-1.5345,-1.5349,-1.5357,-1.5364,-1.5369,-1.5372,-1.5373,-1.5374,-1.5372,-1.5381,-1.5377,-1.5378,-1.5376,-1.5376,-1.5376,-1.538,0,-1.5242,-1.5255,-1.5264,-1.5274,-1.5282,-1.5292,-1.5299,-1.5309,-1.5317,-1.5325,-1.5335,-1.5345,-1.5349,-1.5354,-1.5359,-1.537,-1.5373,-1.537,-1.5384,-1.5384,-1.5379,-1.5379,-1.5375,-1.5378,-1.538,-1.5381,-1.5381,0,-1.5244,-1.5253,-1.5263,-1.5277,-1.5281,-1.5287,-1.5298,-1.5306,-1.5318,-1.5324,-1.5333,-1.5341,-1.5351,-1.5353,-1.5368,-1.5365,-1.5372,-1.5378,-1.5378,-1.538,-1.5382,-1.538,-1.5379,-1.5379,-1.5382,-1.5382,-1.5381,0,-1.5236,-1.5252,-1.526,-1.5265,-1.5282,-1.5286,-1.5293,-1.5305,-1.5312,-1.5323,-1.5327,-1.5339,-1.5346,-1.5356,-1.5368,-1.5368,-1.5381,-1.5384,-1.5387,-1.5386,-1.5388,-1.5388,-1.5388,-1.5393,-1.5393,-1.5393,-1.5393,0,-1.5235,-1.5241,-1.5257,-1.5262,-1.5269,-1.5281,-1.5288,-1.5296,-1.5307,-1.5315,-1.5325,-1.5332,-1.5347,-1.5357,-1.5366,-1.5377,-1.538,-1.5386,-1.5388,-1.5384,-1.5384,-1.5388,-1.5389,-1.5393,-1.5393,-1.5393,-1.5393,0,-1.5228,-1.5239,-1.5248,-1.5263,-1.5267,-1.5272,-1.5285,-1.5291,-1.53,-1.531,-1.5313,-1.5328,-1.5339,-1.5352,-1.5368,-1.5375,-1.5385,-1.5389,-1.5381,-1.5382,-1.5384,-1.5383,-1.5386,-1.5388,-1.5392,-1.5392,-1.5392,0,-1.5226,-1.5231,-1.5247,-1.5252,-1.5259,-1.5268,-1.5274,-1.5286,-1.5293,-1.5308,-1.5312,-1.5325,-1.5335,-1.5354,-1.5367,-1.538,-1.5383,-1.5384,-1.5385,-1.5382,-1.5384,-1.5383,-1.5384,-1.5383,-1.5383,-1.5383,-1.5383,0,-1.5223,-1.5228,-1.5236,-1.5247,-1.5255,-1.5264,-1.5274,-1.5279,-1.5293,-1.53,-1.5312,-1.532,-1.5337,-1.5349,-1.5364,-1.5373,-1.538,-1.5382,-1.5383,-1.538,-1.5375,-1.5378,-1.5379,-1.5382,-1.5382,-1.5382,-1.5382,-1.5382,-1.5218,-1.5223,-1.5235,-1.5244,-1.5253,-1.5262,-1.5269,-1.5278,-1.5288,-1.5302,-1.5309,-1.5321,-1.5334,-1.5354,-1.5363,-1.5374,-1.5376,-1.5378,-1.5378,-1.5378,-1.5377,-1.5373,-1.5376,-1.5376,-1.5376,-1.5377,-1.5377,0,-1.5215,-1.5223,-1.5232,-1.5245,-1.5253,-1.5259,-1.5271,-1.5277,-1.5287,-1.5299,-1.5309,-1.5323,-1.5335,-1.5349,-1.5363,-1.5369,-1.5372,-1.5372,-1.5371,-1.5373,-1.5374,-1.5372,-1.5368,-1.5368,-1.5368,-1.5368,-1.5368,-1.5368,-1.5214,-1.5222,-1.5229,-1.5243,-1.5251,-1.5262,-1.5268,-1.5277,-1.5286,-1.5301,-1.5311,-1.532,-1.5333,-1.5348,-1.536,-1.5364,-1.5369,-1.5367,-1.5372,-1.5373,-1.5373,-1.5374,-1.5372,-1.5368,-1.5368,-1.537,-1.537,-1.537]},{"header":{"parameterUnit":"m.s-1","parameterCategory":1,"la1":30.2991,"la2":30.254,"lo1":-89.0895,"lo2":-89.0444,"dy":0.0017,"dx":0.0017,"nx":28,"ny":28,"refTime":"2024-06-06T03:00:00:Z","depth":0,"parameterNumber":3,"parameterNumberName":"V-component_of_WINDS"},"data":[0,0,0,0,0,0,0,0,0,0,0,0,0,0,0,0,0,0,0,0,0,0,0,0,0,0,0,0,0,0,0,0,0,0,0,0,0,0,0,0,0,0,0,0,0,0,0,0,0,0,0,0,0,0,0,0,0,0,0.9967,0.9966,0,0.9877,0.9876,0.9875,0.9877,0.9878,0.9879,0.988,0.9783,0.9779,0.9775,0,0,0,0,0,0,0,0,0,0,0,0,0,1.0133,1.013,0.9967,0.9966,0.9965,0.9878,0.9876,0.9875,0.9877,0.9878,0.988,0.9881,0.9784,0.9779,0.9775,0,0,0,0,0,0,0,0,0,0,0,0,0,1.0054,1.0129,0.9967,0.9955,0.9953,0.9878,0.9876,0.9875,0.9876,0.9878,0.988,0.9882,0.9785,0.978,0.9774,0.9703,0,0,0.9757,0.9755,0,0,0,0,0,0,0,0,1.0058,1.0047,0.9958,0.9956,0.9954,0.989,0.9899,0.9817,0.9876,0.9905,0.988,0.9883,0.9817,0.9808,0.9787,0.9698,0.9694,0.9757,0.9753,0.9751,0.9749,0,0,0,0,0,0,0,1.0064,1.0051,0.9931,0.9957,0.9954,0.9952,0.9943,0.9883,0.9851,0.9903,0.9903,0.9893,0.9816,0.9793,0.9785,0.9693,0.9757,0.9752,0.9748,0.9746,0.9538,0.9536,0,0,0,0,0,0,1.0073,1.0056,0.9934,0.9929,1.0012,0.9948,0.9937,0.9909,0.9852,0.9846,0.9891,0.9893,0.9802,0.9792,0.9782,0.9693,0.9751,0.9746,0.9742,0.954,0.9537,0.9535,0,0,0,0,0,0,1.0076,1.0062,0.9938,0.9992,0.9976,0.9943,0.9911,0.9906,0.9883,0.9843,0.9837,0.9874,0.9803,0.979,0.9722,0.969,0.9743,0.9738,0.9543,0.9539,0.9536,0.9517,0,0,0,0,0,0,1.0081,1.0063,1.0037,0.9992,0.9974,0.9882,0.9909,0.9903,0.9874,0.9876,0.9826,0.9819,0.9803,0.9731,0.9717,0.9683,0.9734,0.9545,0.9541,0.9537,0.952,0.9513,0.9507,0,0,0,0,0,1.0087,1.0035,1.0036,1.0021,0.9941,0.9881,0.987,0.9854,0.9872,0.9844,0.9818,0.9821,0.9696,0.9724,0.9708,0.9672,0.9547,0.9542,0.9538,0.9523,0.9514,0.9507,0,0,0,0,0,0,1.0075,1.0028,1.003,0.9962,0.9925,0.9881,0.9846,0.9846,0.9802,0.9805,0.9786,0.9774,0.9707,0.9683,0.9715,0.9599,0.9623,0.9615,0.9617,0.9609,0.9603,0.961,0.9729,0,0,0,0,0,1.0065,1.0022,0.9982,0.9926,0.9908,0.988,0.9853,0.9844,0.9805,0.9789,0.9758,0.9718,0.9669,0.9638,0.9591,0.9516,0.9504,0.9483,0.9477,0.9472,0.9465,0.9422,0.9412,0.9519,0.9519,0.9519,0,0,1.0043,1.0012,0.9986,0.9923,0.9894,0.9847,0.9867,0.9817,0.9782,0.9781,0.9716,0.9691,0.9645,0.9573,0.954,0.9551,0.9433,0.9466,0.9462,0.9458,0.9416,0.9406,0.9397,0.9516,0.9516,0.9517,0,0,0.998,0.9953,0.9902,0.9872,0.9828,0.981,0.9798,0.9753,0.9737,0.9672,0.967,0.9626,0.9543,0.951,0.9483,0.9404,0.9404,0.9389,0.9356,0.9314,0.9305,0.9298,0.9269,0.9258,0.9382,0.9382,0.9382,0,0.9957,0.989,0.9876,0.9826,0.9797,0.9795,0.9742,0.9713,0.9655,0.9634,0.9648,0.9543,0.9512,0.9432,0.9413,0.9391,0.9374,0.9395,0.9308,0.93,0.9293,0.9265,0.9254,0.9381,0.9381,0.9381,0.9381,0,0.9864,0.9816,0.978,0.9726,0.9693,0.9642,0.9618,0.9586,0.9579,0.9558,0.949,0.9453,0.9398,0.9378,0.937,0.9295,0.9304,0.9313,0.9337,0.9281,0.9255,0.9244,0.9379,0.9379,0.938,0.938,0,0,0.9791,0.973,0.9717,0.9691,0.9642,0.9604,0.9551,0.9499,0.9471,0.943,0.9384,0.9313,0.9321,0.929,0.9278,0.9241,0.918,0.9254,0.9253,0.9241,0.9093,0.9087,0.9075,0.9179,0.9177,0.9176,0.9097,0,0.9722,0.9631,0.9616,0.9535,0.949,0.9487,0.944,0.9403,0.9382,0.9339,0.9314,0.9264,0.9279,0.926,0.9223,0.9195,0.915,0.9201,0.9134,0.9132,0.9146,0.9061,0.9054,0.8982,0.9087,0.9085,0.9084,0,0.963,0.9588,0.9504,0.9459,0.9439,0.9398,0.9348,0.9307,0.9264,0.9251,0.9215,0.9207,0.915,0.9176,0.9096,0.9131,0.9102,0.9084,0.9081,0.9074,0.9105,0.9051,0.8959,0.8948,0.9067,0.9068,0.907,0,0.9584,0.9507,0.9446,0.9425,0.9371,0.9342,0.9318,0.9277,0.9246,0.9201,0.918,0.9129,0.91,0.906,0.9037,0.9059,0.8957,0.8982,0.8943,0.8943,0.8922,0.8924,0.8823,0.8904,0.8904,0.8905,0.8905,0,0.9509,0.9457,0.9425,0.9388,0.9328,0.931,0.9251,0.9227,0.919,0.9146,0.9139,0.9097,0.907,0.9023,0.9005,0.894,0.8927,0.8913,0.8909,0.8914,0.8916,0.8895,0.8899,0.8902,0.8902,0.8903,0.8903,0,0.9448,0.9426,0.9359,0.9314,0.9301,0.9259,0.9219,0.9181,0.9159,0.9103,0.9089,0.9054,0.8998,0.8972,0.8903,0.889,0.8816,0.8816,0.8832,0.883,0.8792,0.8796,0.8675,0.8657,0.875,0.8749,0.8749,0,0.9402,0.9362,0.9312,0.9283,0.9259,0.9212,0.918,0.9159,0.9126,0.9073,0.9041,0.8986,0.8941,0.8852,0.8819,0.8766,0.8763,0.8724,0.8755,0.8761,0.8761,0.8764,0.8759,0.8719,0.8718,0.8717,0.8716,0,0.9321,0.9311,0.9267,0.9219,0.9182,0.9142,0.9102,0.9078,0.9051,0.9013,0.8958,0.8923,0.8852,0.8797,0.8741,0.8713,0.8709,0.8707,0.8695,0.8699,0.871,0.8703,0.8816,0.871,0.8711,0.8711,0.8711,0.8712,0.9265,0.9229,0.9189,0.9139,0.9108,0.9071,0.9033,0.9006,0.896,0.8903,0.8892,0.8832,0.8788,0.8712,0.8683,0.8634,0.8643,0.8625,0.8621,0.8617,0.8615,0.8718,0.8624,0.8624,0.8624,0.8624,0.8624,0,0.9183,0.9157,0.9112,0.9058,0.9018,0.9019,0.8975,0.8941,0.889,0.8849,0.8805,0.874,0.8685,0.8648,0.8592,0.856,0.8557,0.8546,0.8548,0.8541,0.8611,0.8626,0.855,0.855,0.855,0.855,0.855,0.855,0.9136,0.9075,0.906,0.8982,0.8955,0.8898,0.8872,0.8837,0.8805,0.8733,0.8688,0.8665,0.8624,0.8566,0.8515,0.8505,0.8484,0.8473,0.8463,0.8529,0.8537,0.8544,0.8559,0.8469,0.8469,0.8398,0.8398,0.8397]}]]